Flag for Canada Weather past 2 weeks in Morden, Manitoba, Canada

Now
63 °F

Mild.


Feels Like: 63 °F
Forecast: 54 / 81 °F
Wind: 6 mph from West

Location: Morden CDA CS

Current Time: Jul 30, 2014 at 9:18:36 AM

Latest Report: Jul 30, 2014 at 8:00 AM


Visibility: N/A

Pressure: 30.08 "Hg

Humidity: 73%

Dew point: 54 °F

Location of MordenLocation

Historic Weather in Morden — Graph

°F

Morden temperature yesterday

Maximum temperature yesterday: 77 °F (at 4:00 PM)
Minimum temperature yesterday: 53 °F (at 3:00 AM)
Average temperature yesterday: 66 °F

Past Weeks' High & Low Weather Summary

 TemperatureHumidityPressure
High88 °F (Jul 20, 2:00 PM)99% (Jul 24, 2:00 AM)30.32 "Hg (Jul 24, 2:00 AM)
Low48 °F (Jul 16, 4:00 AM)31% (Jul 25, 2:00 PM)29.48 "Hg (Jul 20, 10:00 AM)
Average67 °F69%29.90 "Hg
* Reported Jul 15 8:00 AM — Jul 30 8:00 AM, Morden, Weather by CustomWeather, © 2014

Note: Actual official high and low records may vary slightly from our data, if they occured in-between our weather recording intervals... More about our weather records

Advertising

Morden weather history for previous 24 hours

 ConditionsComfort  
Time TempWeatherWind HumidityBarometerVisibility
8:00 AM
Jul 30
63 °FMild.6 mph73%30.08 "HgN/A
7:00 AM59 °FCool.5 mph77%30.09 "HgN/A
6:00 AM57 °FCool.6 mph76%30.09 "HgN/A
5:00 AM59 °FCool.6 mph80%30.09 "HgN/A
4:00 AM57 °FCool.6 mph84%30.08 "HgN/A
3:00 AM57 °FCool.6 mph83%30.09 "HgN/A
2:00 AM55 °FCool.2 mph90%30.09 "HgN/A
1:00 AM58 °FCool.3 mph84%30.09 "HgN/A
12:00 AM59 °FCool.6 mph84%30.09 "HgN/A
11:00 PM
Jul 29
59 °FCool.3 mph84%30.08 "HgN/A
10:00 PM62 °FCool.2 mph74%30.08 "HgN/A
9:00 PM69 °FMild.2 mph63%30.07 "HgN/A
8:00 PM73 °FMild.3 mph50%30.07 "HgN/A
7:00 PM75 °FMild.5 mph41%30.08 "HgN/A
6:00 PM76 °FMild.7 mph39%30.09 "HgN/A
5:00 PM76 °FMild.7 mph42%30.10 "HgN/A
4:00 PM77 °FMild.7 mph43%30.11 "HgN/A
3:00 PM75 °FMild.6 mph39%30.12 "HgN/A
2:00 PM75 °FMild.8 mph44%30.13 "HgN/A
1:00 PM74 °FMild.6 mph45%30.13 "HgN/A
12:00 PM73 °FMild.6 mph51%30.14 "HgN/A
11:00 AM72 °FMild.7 mph52%30.14 "HgN/A
10:00 AM70 °FMild.5 mph55%30.15 "HgN/A
9:00 AM68 °FMild.5 mph61%30.14 "HgN/A
Weather by CustomWeather, © 2014

See weather overviewHow to use our weather pages